Regional Weather Roundup
Issued by NWS

Home | Current Version | Previous Version | Text Only | Print | Product List | Glossary Off
Versions: 1 2 3 4 5 6 7 8 9 10 11 12 13 14 15 16 17 18 19 20 21 22 23 24 25 26 27 28 29 30 31 32 33 34 35 36 37 38 39 40 41 42 43 44 45 46 47 48 49 50

000
ASUS43 KMPX 252301
RWRMN
WEATHER ROUNDUP FOR MINNESOTA
NATIONAL WEATHER SERVICE TWIN CITIES/CHANHASSEN MN
600 PM CDT MON SEP 25 2017


NOTE: "FAIR" INDICATES FEW OR NO CLOUDS BELOW 12,000 FEET WITH NO
SIGNIFICANT WEATHER AND/OR OBSTRUCTIONS TO VISIBILITY. N/A MEANS
CURRENT SKY AND/OR WEATHER CONDITIONS ARE NOT AVAILABLE.

MNZ060>063-068>070-260000-
   Twin Cities Metro

CITY           SKY/WX    TMP DP  RH WIND       PRES   REMARKS
TWIN CITIES    CLOUDY    61  57  87 N9        29.98R
ST PAUL        CLOUDY    61  57  87 N6        29.99R
CRYSTAL        CLOUDY    59  53  80 N8        29.98R
BLAINE         CLOUDY    61  57  88 N7        29.99R
LAKEVILLE      CLOUDY    61  55  82 N5        29.97S
EDEN PRAIRIE   CLOUDY    60  57  89 N7        29.97S
SOUTH ST PAUL  CLOUDY    61  57  87 N9        29.97S
LAKE ELMO      CLOUDY    61  55  82 NW9       29.99S
$$
MNZ001>005-007-008-013>017-022>024-027-028-260000-
   Northwest Minnesota

CITY           SKY/WX    TMP DP  RH WIND       PRES   REMARKS
BEMIDJI        CLOUDY    53  49  88 N5        30.05F
HALLOCK          N/A     54  48  82 N6        30.12S
ROSEAU         PTSUNNY   54  48  82 N6        30.11F
CROOKSTON      CLOUDY    54  48  82 N10       30.11S
FOSSTON        CLOUDY    52  46  82 N8        30.08S
DETROIT LAKES  CLOUDY    54  48  82 N5        30.07S
MOORHEAD       CLOUDY    52  46  82 N9        30.10R
PARK RAPIDS    CLOUDY    56  49  77 N8        30.04F
MAHNOMEN       CLOUDY    53  47  81 N12       30.07S
$$
MNZ006-009>011-018-025>026-260000-
   North Central Minnesota

CITY           SKY/WX    TMP DP  RH WIND       PRES   REMARKS
BAUDETTE       CLOUDY    53  49  86 N8        30.09F
FLAG ISLAND    PTSUNNY   52  46  82 NE8       30.10F
INTL FALLS     CLOUDY    54  49  83 N8        30.07R
WASKISH        CLOUDY    54  48  82 N8        30.07F
BIG FORK       CLOUDY    55  50  82 N5        30.05F
LONGVILLE      CLOUDY    55  52  88 N3        30.03S
GRAND RAPIDS   CLOUDY    55  50  83 N8        30.06R
CRANE LAKE     CLOUDY    54  52  94 N3        30.06S
ORR            CLOUDY    54  48  82 CALM      30.03R
WALKER         DRIZZLE   53  50  90 N6        30.04S
$$
MNZ012-019>021-037-260000-
   Northeast Minnesota

CITY           SKY/WX    TMP DP  RH WIND       PRES   REMARKS
DULUTH         CLOUDY    56  55  97 N8        30.01R
ELY            CLOUDY    55  54  94 CALM      30.03R
HIBBING        CLOUDY    54  52  93 N7        30.03R
EVELETH        CLOUDY    58  56  94 N5        30.03S
GRAND MARAIS     N/A     64  56  75 VRB6      29.97S
$$
MNZ029>031-032-039>041-046>048-054>057-064-260000-
   West Central Minnesota

CITY           SKY/WX    TMP DP  RH WIND       PRES   REMARKS
FERGUS FALLS   CLOUDY    54  48  82 N7        30.06S
WHEATON        CLOUDY    52  48  87 N13       30.08S FOG
ALEXANDRIA     CLOUDY    57  50  77 N10       30.04R
ELBOW LAKE     CLOUDY    54  50  86 NW8       30.05R
WADENA         CLOUDY    55  48  76 N6        30.05R
GLENWOOD       CLOUDY    55  52  88 N8        30.03R
APPLETON       LGT RAIN  57  48  72 NW9       30.04R
BENSON         CLOUDY    57  50  77 N6        30.03S
ORTONVILLE     CLOUDY    54  48  82 N7        30.05R
MADISON        RAIN      57  52  82 N9        30.04R
WILLMAR        LGT RAIN  59  54  82 N7        30.02S
$$
MNZ033>034-036-042>043-049>051-058-059-260000-
   Central Minnesota

CITY           SKY/WX    TMP DP  RH WIND       PRES   REMARKS
ST CLOUD       CLOUDY    58  54  86 N6        30.01R
SAUK CENTRE    CLOUDY    56  50  80 N9        30.03R
PAYNESVILLE    CLOUDY    58  53  83 N6        30.02S
AITKIN         CLOUDY    55  52  88 N5        30.01R
PINE RIVER     CLOUDY    54  46  76 N7        30.06S
BRAINERD       CLOUDY    56  52  86 NE7       30.03R
STAPLES        CLOUDY    55  48  76 NE5       30.04R
LITTLE FALLS   CLOUDY    55  46  71 N3        30.03R
LITCHFIELD     CLOUDY    59  55  88 N6        30.01S
BUFFALO        CLOUDY    58  54  85 N5        30.01R
MAPLE LAKE     CLOUDY    58  55  89 N5        30.01S
HUTCHINSON     CLOUDY    60  56  87 N3        30.00F
$$
MNZ037-044-045-052-053-260000-
   East Central Minnesota

CITY           SKY/WX    TMP DP  RH WIND       PRES   REMARKS
PRINCETON      CLOUDY    59  55  88 N6        30.01R
MORA           CLOUDY    55  52  88 CALM      30.02S
RUSH CITY      CLOUDY    58  54  85 N3        30.00S
MOOSE LAKE     CLOUDY    55  52  88 NE5       30.00R
HINCKLEY       CLOUDY    57  54  88 N6        30.01R
CLOQUET        CLOUDY    55  52  88 NW7       30.02R
MCGREGOR       CLOUDY    55  52  88 N6        30.03R
$$
MNZ071>073-080-081-089-090-097-098-260000-
   Southwest Minnesota

CITY           SKY/WX    TMP DP  RH WIND       PRES   REMARKS
MONTEVIDEO     RAIN      57  52  82 NE7       30.02S
GRANITE FALLS  DRIZZLE   58  53  84 NW7       30.02S
CANBY          RAIN      54  51  90 NW8       30.04F
MARSHALL       LGT RAIN  55  52  89 N9        30.01R
REDWOOD FALLS  LGT RAIN  59  53  80 N7        29.99S
OLIVIA         LGT RAIN  57  52  82 N8        29.99F
PIPESTONE      RAIN      54  52  94 NE10      29.99F
WORTHINGTON    LGT RAIN  55  54  96 N9        29.99S FOG
JACKSON        CLOUDY    55  54  94 CALM      29.98F
TRACY          DRIZZLE   56  55  97 N7        30.00S
SLAYTON        LGT RAIN  54  46  73 N8        30.01R
$$
MNZ065>067-074>077-082>085-091>093-260000-
   South Central Minnesota

CITY           SKY/WX    TMP DP  RH WIND       PRES   REMARKS
MANKATO        LGT RAIN  58  56  93 NE10      29.96F
NEW ULM        CLOUDY    57  55  94 NE8       29.96F
ST JAMES       CLOUDY    57  55  94 N7        29.97R
FAIRMONT       CLOUDY    58  56  93 N5        29.98R
FARIBAULT      CLOUDY    61  57  88 N9        29.98R
OWATONNA       CLOUDY    63  59  88 N9        29.97S
WASECA         CLOUDY    59  55  88 N10       29.97S
ALBERT LEA     CLOUDY    66  63  88 N7        29.96R
$$
MNZ078>079-086>088-094>096-260000-
   Southeast Minnesota

CITY           SKY/WX    TMP DP  RH WIND       PRES   REMARKS
ROCHESTER      PTSUNNY   68  63  84 NW15      29.95R
RED WING       CLOUDY    64  57  77 N5        29.95R
STANTON        CLOUDY    62  58  86 N8        29.96R
DODGE CENTER   CLOUDY    64  59  82 N12       29.95S
WINONA         PTCLDY    73  64  73 SE5       29.91S
AUSTIN         CLOUDY    64  61  88 N6        29.94R
PRESTON        MOCLDY    73  64  73 SE3       29.93R
$$
ABBREVIATIONS USED IN REMARKS
   TC - TEMPERATURES IN CELSIUS
  WCI - WIND CHILL INDEX
   HX - HEAT INDEX
  VSB - VISIBILITY
$$




USA.gov is the U.S. government's official web portal to all federal, state and local government web resources and services.